TimeMDT,TemperatureF,Dew PointF,Humidity,Sea Level PressureIn,VisibilityMPH,Wind Direction,Wind SpeedMPH,Gust SpeedMPH,PrecipitationIn,Events,Conditions,WindDirDegrees,DateUTC
12:15 AM,61.9,16.7,17,30.17,10.0,West,9.2,-,N/A,,Clear,260,2013-06-25 06:15:00
12:35 AM,60.4,17.4,19,30.16,10.0,West,5.8,-,N/A,,Clear,260,2013-06-25 06:35:00
12:55 AM,60.8,17.6,19,30.15,10.0,West,8.1,-,N/A,,Clear,270,2013-06-25 06:55:00
1:15 AM,61.0,16.7,18,30.15,10.0,SW,10.4,-,N/A,,Clear,230,2013-06-25 07:15:00
1:35 AM,61.9,14.7,16,30.16,10.0,SW,10.4,-,N/A,,Clear,230,2013-06-25 07:35:00
1:55 AM,60.8,14.9,17,30.16,10.0,SSW,6.9,-,N/A,,Clear,210,2013-06-25 07:55:00
2:15 AM,61.0,15.6,17,30.16,10.0,SW,9.2,-,N/A,,Clear,230,2013-06-25 08:15:00
2:35 AM,60.4,16.3,18,30.17,10.0,SW,11.5,-,N/A,,Clear,230,2013-06-25 08:35:00
2:55 AM,60.8,16.7,18,30.17,10.0,SW,10.4,16.1,N/A,,Clear,220,2013-06-25 08:55:00
3:15 AM,61.7,16.7,17,30.17,10.0,SW,11.5,-,N/A,,Clear,230,2013-06-25 09:15:00
3:35 AM,59.7,18.1,20,30.17,10.0,WSW,10.4,-,N/A,,Clear,240,2013-06-25 09:35:00
3:55 AM,60.1,17.6,19,30.17,10.0,SW,12.7,16.1,N/A,,Clear,230,2013-06-25 09:55:00
4:15 AM,60.4,17.6,19,30.17,10.0,SW,10.4,17.3,N/A,,Clear,230,2013-06-25 10:15:00
4:35 AM,60.3,18.0,19,30.17,10.0,SW,10.4,17.3,N/A,,Clear,230,2013-06-25 10:35:00
4:55 AM,59.4,18.1,20,30.17,10.0,SW,11.5,16.1,N/A,,Clear,220,2013-06-25 10:55:00
5:15 AM,59.4,17.6,20,30.19,10.0,SW,9.2,-,N/A,,Clear,230,2013-06-25 11:15:00
5:35 AM,60.3,17.6,19,30.19,10.0,SW,10.4,-,N/A,,Clear,230,2013-06-25 11:35:00
5:55 AM,60.8,16.7,18,30.19,10.0,SW,9.2,-,N/A,,Clear,230,2013-06-25 11:55:00
6:15 AM,62.2,16.2,17,30.19,10.0,WSW,11.5,-,N/A,,Clear,240,2013-06-25 12:15:00
6:35 AM,62.8,17.1,17,30.20,10.0,WSW,6.9,-,N/A,,Clear,240,2013-06-25 12:35:00
6:55 AM,66.2,14.2,13,30.20,10.0,WSW,12.7,19.6,N/A,,Clear,250,2013-06-25 12:55:00
7:15 AM,67.1,14.7,13,30.20,10.0,West,17.3,25.3,N/A,,Clear,260,2013-06-25 13:15:00
7:35 AM,68.0,15.6,13,30.21,10.0,West,12.7,20.7,N/A,,Clear,260,2013-06-25 13:35:00
7:55 AM,68.9,15.8,13,30.22,10.0,WSW,19.6,27.6,N/A,,Clear,250,2013-06-25 13:55:00
8:15 AM,70.0,16.7,13,30.23,10.0,WSW,19.6,28.8,N/A,,Clear,250,2013-06-25 14:15:00
8:35 AM,71.2,16.7,13,30.23,10.0,SW,18.4,26.5,N/A,,Clear,230,2013-06-25 14:35:00
8:55 AM,72.0,17.2,13,30.23,10.0,SW,18.4,27.6,N/A,,Clear,230,2013-06-25 14:55:00
9:15 AM,72.7,17.4,12,30.23,10.0,WSW,20.7,27.6,N/A,,Clear,240,2013-06-25 15:15:00
9:35 AM,73.8,17.2,12,30.23,10.0,WSW,18.4,28.8,N/A,,Clear,240,2013-06-25 15:35:00
9:55 AM,74.5,17.6,12,30.23,10.0,WSW,17.3,26.5,N/A,,Clear,250,2013-06-25 15:55:00
10:15 AM,75.7,17.2,11,30.22,10.0,SSW,19.6,31.1,N/A,,Clear,210,2013-06-25 16:15:00
10:35 AM,76.8,17.4,11,30.23,10.0,SW,20.7,29.9,N/A,,Clear,230,2013-06-25 16:35:00
10:55 AM,77.5,18.9,11,30.23,10.0,WSW,21.9,32.2,N/A,,Clear,240,2013-06-25 16:55:00
11:15 AM,78.3,19.0,11,30.24,10.0,SW,24.2,29.9,N/A,,Clear,230,2013-06-25 17:15:00
11:35 AM,79.2,20.7,11,30.24,10.0,WSW,19.6,27.6,N/A,,Clear,240,2013-06-25 17:35:00
11:55 AM,79.7,20.3,11,30.24,10.0,WSW,21.9,28.8,N/A,,Clear,240,2013-06-25 17:55:00
12:15 PM,80.8,20.5,11,30.24,10.0,SW,18.4,26.5,N/A,,Clear,230,2013-06-25 18:15:00
12:35 PM,81.9,22.3,11,30.24,10.0,WSW,19.6,24.2,N/A,,Clear,250,2013-06-25 18:35:00
12:55 PM,81.3,23.0,12,30.24,10.0,WSW,20.7,31.1,N/A,,Clear,250,2013-06-25 18:55:00
1:15 PM,81.9,23.7,12,30.24,10.0,WSW,18.4,33.4,N/A,,Clear,240,2013-06-25 19:15:00
1:35 PM,83.5,23.9,11,30.24,10.0,WSW,24.2,32.2,N/A,,Clear,240,2013-06-25 19:35:00
1:55 PM,83.5,23.2,11,30.24,10.0,WSW,28.8,34.5,N/A,,Clear,240,2013-06-25 19:55:00
2:15 PM,82.9,23.2,11,30.24,10.0,West,23.0,34.5,N/A,,Clear,260,2013-06-25 20:15:00
2:35 PM,82.9,22.5,11,30.24,10.0,West,24.2,32.2,N/A,,Clear,270,2013-06-25 20:35:00
2:55 PM,82.8,22.5,11,30.24,10.0,West,25.3,32.2,N/A,,Clear,270,2013-06-25 20:55:00
3:15 PM,82.6,21.7,11,30.23,10.0,West,20.7,32.2,N/A,,Clear,260,2013-06-25 21:15:00
3:35 PM,83.7,21.9,10,30.22,10.0,WNW,17.3,27.6,N/A,,Clear,290,2013-06-25 21:35:00
3:55 PM,83.7,23.4,11,30.22,10.0,WSW,15.0,26.5,N/A,,Clear,250,2013-06-25 21:55:00
4:15 PM,84.7,23.2,10,30.22,10.0,WSW,20.7,28.8,N/A,,Clear,240,2013-06-25 22:15:00
4:35 PM,85.8,22.3,10,30.21,10.0,West,16.1,26.5,N/A,,Clear,280,2013-06-25 22:35:00
4:55 PM,85.1,23.5,11,30.21,10.0,West,13.8,23.0,N/A,,Clear,270,2013-06-25 22:55:00
5:15 PM,85.3,23.5,10,30.21,10.0,WSW,15.0,19.6,N/A,,Clear,240,2013-06-25 23:15:00
5:35 PM,85.1,23.2,10,30.21,10.0,WNW,17.3,24.2,N/A,,Clear,290,2013-06-25 23:35:00
5:55 PM,85.1,23.2,10,30.21,10.0,West,16.1,21.9,N/A,,Clear,280,2013-06-25 23:55:00
6:15 PM,84.2,22.8,11,30.22,10.0,West,17.3,21.9,N/A,,Clear,280,2013-06-26 00:15:00
6:35 PM,83.1,23.2,11,30.22,10.0,WSW,15.0,21.9,N/A,,Clear,250,2013-06-26 00:35:00
6:55 PM,82.6,24.3,12,30.22,10.0,WSW,17.3,23.0,N/A,,Clear,250,2013-06-26 00:55:00
7:15 PM,81.1,23.5,12,30.23,10.0,WSW,12.7,18.4,N/A,,Clear,250,2013-06-26 01:15:00
7:35 PM,80.1,25.3,13,30.23,10.0,WSW,9.2,-,N/A,,Clear,240,2013-06-26 01:35:00
7:55 PM,78.4,26.1,15,30.24,10.0,WSW,12.7,-,N/A,,Clear,250,2013-06-26 01:55:00
8:15 PM,76.5,25.5,15,30.25,10.0,WSW,11.5,-,N/A,,Clear,250,2013-06-26 02:15:00
8:35 PM,74.7,26.2,17,30.25,10.0,WSW,12.7,-,N/A,,Clear,250,2013-06-26 02:35:00
8:55 PM,74.3,25.7,16,30.27,10.0,WSW,8.1,-,N/A,,Clear,250,2013-06-26 02:55:00
9:15 PM,71.2,27.5,20,30.28,10.0,NW,6.9,-,N/A,,Clear,320,2013-06-26 03:15:00
9:35 PM,71.4,26.8,19,30.29,10.0,West,9.2,-,N/A,,Clear,260,2013-06-26 03:35:00
9:55 PM,72.0,26.2,18,30.30,10.0,WNW,8.1,-,N/A,,Clear,300,2013-06-26 03:55:00
10:15 PM,73.0,25.3,17,30.31,10.0,NW,8.1,-,N/A,,Clear,310,2013-06-26 04:15:00
10:35 PM,71.4,26.1,18,30.32,10.0,West,8.1,-,N/A,,Clear,260,2013-06-26 04:35:00
10:55 PM,68.5,27.3,21,30.33,10.0,West,6.9,-,N/A,,Clear,280,2013-06-26 04:55:00
11:15 PM,67.3,27.0,22,30.33,10.0,West,8.1,-,N/A,,Clear,260,2013-06-26 05:15:00
11:35 PM,65.8,27.7,24,30.33,10.0,West,8.1,-,N/A,,Clear,260,2013-06-26 05:35:00
11:55 PM,64.6,28.4,26,30.34,10.0,WSW,8.1,-,N/A,,Clear,250,2013-06-26 05:55:00